Regional Weather Roundup
Issued by NWS

Home | Current Version | Previous Version | Graphics & Text | Print | Product List | Glossary On
Versions: 1 2 3 4 5 6 7 8 9 10 11 12 13 14 15 16 17 18 19 20 21 22 23 24 25 26 27 28 29 30 31 32 33 34 35 36 37 38 39 40 41 42 43 44 45 46 47 48 49 50
000
ASUS43 KOAX 222302
RWRNE

WEATHER ROUNDUP FOR NEBRASKA
NATIONAL WEATHER SERVICE OMAHA NE
500 PM CST WED FEB 22 2017

NOTES: SATELLITE DATA IS BEING USED TO AUGMENT CLOUD COVER ABOVE
       12000 FEET.
       "FAIR" INDICATES FEW OR NO CLOUDS BELOW 12,000 FEET WITH NO
       SIGNIFICANT WEATHER AND/OR OBSTRUCTIONS TO VISIBILITY.

  * THESE STATIONS DO NOT REPORT WEATHER SUCH AS RAIN...SNOW OR FOG.

NEZ001>004-019>022-054>056-230000-
NEBRASKA PANHANDLE

CITY           SKY/WX    TMP DP  RH WIND       PRES   REMARKS
SCOTTSBLUFF    PTSUNNY   53  15  22 NW13      29.78S
ALLIANCE       MOSUNNY   52  14  22 NW16G24   29.76S
CHADRON        SUNNY     53  22  29 NW14      29.77S
KIMBALL        SUNNY     51  20  29 N10G21    29.78F
SIDNEY         SUNNY     56  15  20 N17       29.77F
$$

NEZ057>060-069>072-079>082-230000-
SOUTHWEST NEBRASKA

CITY           SKY/WX    TMP DP  RH WIND       PRES   REMARKS
NORTH PLATTE   SUNNY     64  19  17 NW10      29.75S
IMPERIAL       SUNNY     63  17  17 NE6       29.74F
LEXINGTON      SUNNY     65  21  18 N8        29.74S
MCCOOK         SUNNY     66  24  20 N8        29.73F
OGALLALA       SUNNY     61  17  17 N8        29.76F
$$

NEZ005>010-023>029-035>040-094-230000-
NORTH CENTRAL NEBRASKA

CITY           SKY/WX    TMP DP  RH WIND       PRES   REMARKS
VALENTINE      CLOUDY    57  22  25 N12G22    29.75S
AINSWORTH      CLOUDY    57  28  31 N14       29.76R
BROKEN BOW     SUNNY     64  23  21 N8        29.73S
O`NEILL        SUNNY     59  31  34 NW15      29.75R
ORD            SUNNY     63  29  27 N10       29.73R
THEDFORD       PTSUNNY   58  25  28 N6        29.77S
$$

NEZ041-046>049-061>064-073>077-083>087-230000-
SOUTH CENTRAL NEBRASKA

CITY           SKY/WX    TMP DP  RH WIND       PRES   REMARKS
GRAND ISLAND   SUNNY     67  28  23 N16       29.72R
AURORA         SUNNY     67  29  23 NW16      29.71R
HASTINGS       SUNNY     68  23  18 NW13      29.72R
HEBRON         CLOUDY    72  26  17 NW10      29.69R
HOLDREGE       SUNNY     66  19  16 NW9       29.72F
KEARNEY *      SUNNY     66  21  18 NW10      29.73S
YORK           SUNNY     66  30  26 NW13G21   29.70R
$$

NEZ011>018-030>034-042>045-230000-
NORTHEAST NEBRASKA

CITY           SKY/WX    TMP DP  RH WIND       PRES   REMARKS
NORFOLK        SUNNY     62  28  27 N22       29.70R
ALBION         SUNNY     64  28  26 N12       29.73R
BLAIR          SUNNY     68  37  31 NW17      29.66R
FREMONT        SUNNY     67  37  32 NW10G20   29.69R
TEKAMAH        SUNNY     66  37  34 NW23G29   29.66R
WAYNE          SUNNY     62  33  34 NW17G23   29.70R
$$

NEZ050>053-065>068-078-088>093-230000-
SOUTHEAST NEBRASKA

CITY           SKY/WX    TMP DP  RH WIND       PRES   REMARKS
LINCOLN        SUNNY     73  27  18 N17       29.68R
OMAHA EPPLEY   MOSUNNY   70  38  31 N14       29.65R
BEATRICE       MOSUNNY   72  37  28 N8        29.67R
FALLS CITY     CLOUDY    72  37  28 N6        29.63S
NEBRASKA CITY  SUNNY     72  29  20 N13       29.65R
PLATTSMOUTH    SUNNY     71  29  21 NW7       29.65S
$$

NEZ044-045-051>053-067-230000-
OMAHA AREA

CITY           SKY/WX    TMP DP  RH WIND       PRES   REMARKS
OMAHA EPPLEY   MOSUNNY   70  38  31 N14       29.65R
BLAIR          SUNNY     68  37  31 NW17      29.66R
FREMONT        SUNNY     67  37  32 NW10G20   29.69R
MILLARD        SUNNY     73  35  25 NW13      29.66R
OFFUTT AFB     SUNNY     71  35  27 N9        29.64R
PLATTSMOUTH    SUNNY     71  29  21 NW7       29.65S
WAHOO          FAIR      69  32  25 NW13G18   29.68R
$$




USA.gov is the U.S. government's official web portal to all federal, state and local government web resources and services.